Location: Lachepaillet
(43.4918°N, 1.4874°W)
Time: 00:19:49
(UTC+00:00)

Cosmos 2333 Rocket - Pass Details

Date: 15 May 2026
Orbit: 840 x 862 km, 70.8° (Epoch: 9 June)

Event Time Altitude Azimuth Distance (km) Brightness Sun altitude
Rises 21:35:50 0° 332° (NNW) 3,423 7.0 -19.0°
Reaches altitude 10° 21:38:18 10° 330° (NNW) 2,486 5.9 -19.3°
Maximum altitude 21:43:57 67° 249° (WSW) 926 2.4 -19.9°
Enters shadow 21:46:30 33° 177° (S) 1,397 2.9 -20.1°
